| time (UTC) | temp F | wind direction | speed knots | gust knots | rain 1hr in | rain 24hr in | rain mn in | humidity % | barometer mb |
| 20260503051805 | 50 | 84 | 0.0 | 0.9 | 0.00 | 0.00 | 0.00 | 44 | 1015.0 |
| 20260503050804 | 51 | 36 | 0.0 | 0.9 | 0.00 | 0.00 | 0.00 | 42 | 1014.9 |
| 20260503050304 | 51 | 9 | 0.0 | 0.9 | 0.00 | 0.00 | 0.00 | 45 | 1014.9 |
| 20260503045804 | 51 | 11 | 0.0 | 0.9 | 0.00 | 0.00 | 0.00 | 43 | 1015.1 |
| 20260503045305 | 52 | 335 | 0.0 | 0.9 | 0.00 | 0.00 | 0.00 | 44 | 1014.9 |
| 20260503044804 | 52 | 32 | 0.0 | 0.0 | 0.00 | 0.00 | 0.00 | 43 | 1014.9 |
| 20260503044303 | 53 | 12 | 0.0 | 0.9 | 0.00 | 0.00 | 0.00 | 44 | 1014.9 |
| 20260503043803 | 53 | 67 | 0.0 | 1.7 | 0.00 | 0.00 | 0.00 | 44 | 1014.8 |
| 20260503043304 | 53 | 45 | 0.0 | 1.7 | 0.00 | 0.00 | 0.00 | 46 | 1014.9 |
| 20260503042804 | 54 | 102 | 0.0 | 1.7 | 0.00 | 0.00 | 0.00 | 48 | 1015.0 |
| 20260503042305 | 54 | 105 | 0.0 | 1.7 | 0.00 | 0.00 | 0.00 | 48 | 1014.9 |
| 20260503041804 | 54 | 61 | 0.0 | 0.9 | 0.00 | 0.00 | 0.00 | 50 | 1014.8 |
| 20260503041304 | 54 | 19 | 0.9 | 1.7 | 0.00 | 0.00 | 0.00 | 50 | 1014.7 |
| 20260503040804 | 55 | 322 | 0.9 | 2.6 | 0.00 | 0.00 | 0.00 | 50 | 1014.7 |
| 20260503035804 | 55 | 348 | 0.9 | 5.2 | 0.00 | 0.00 | 0.00 | 49 | 1014.8 |
| 20260503035305 | 56 | 339 | 1.7 | 5.2 | 0.00 | 0.00 | 0.00 | 48 | 1014.5 |
| 20260503034804 | 56 | 28 | 1.7 | 4.3 | 0.00 | 0.00 | 0.00 | 48 | 1014.6 |
| 20260503034304 | 56 | 304 | 1.7 | 6.1 | 0.00 | 0.00 | 0.00 | 46 | 1014.5 |
| 20260503032304 | 58 | 296 | 2.6 | 6.1 | 0.00 | 0.00 | 0.00 | 46 | 1014.4 |
| 20260503031804 | 58 | 305 | 3.5 | 6.1 | 0.00 | 0.00 | 0.00 | 46 | 1014.4 |
| 20260503031304 | 58 | 300 | 3.5 | 7.8 | 0.00 | 0.00 | 0.00 | 47 | 1014.3 |
| 20260503030803 | 58 | 293 | 3.5 | 7.8 | 0.00 | 0.00 | 0.00 | 46 | 1014.2 |
| 20260503030303 | 58 | 299 | 0.9 | 4.3 | 0.00 | 0.00 | 0.00 | 46 | 1014.2 |
| 20260503025804 | 58 | 303 | 1.7 | 7.0 | 0.00 | 0.00 | 0.00 | 46 | 1014.2 |
| 20260503025305 | 59 | 293 | 0.9 | 4.3 | 0.00 | 0.00 | 0.00 | 45 | 1014.3 |
| 20260503024305 | 60 | 321 | 2.6 | 8.7 | 0.00 | 0.00 | 0.00 | 43 | 1014.2 |
| 20260503023804 | 60 | 290 | 6.1 | 7.8 | 0.00 | 0.00 | 0.00 | 43 | 1014.3 |
| 20260503023304 | 60 | 293 | 4.3 | 7.8 | 0.00 | 0.00 | 0.00 | 42 | 1014.1 |
| 20260503022805 | 61 | 294 | 2.6 | 7.0 | 0.00 | 0.00 | 0.00 | 42 | 1014.3 |
| 20260503022305 | 61 | 272 | 2.6 | 7.8 | 0.00 | 0.00 | 0.00 | 41 | 1014.2 |
| 20260503021804 | 61 | 285 | 3.5 | 12.2 | 0.00 | 0.00 | 0.00 | 40 | 1013.9 |
| 20260503021304 | 61 | 296 | 4.3 | 8.7 | 0.00 | 0.00 | 0.00 | 40 | 1014.3 |
| 20260503020804 | 62 | 302 | 3.5 | 6.1 | 0.00 | 0.00 | 0.00 | 38 | 1014.2 |
| 20260503020305 | 62 | 280 | 1.7 | 7.8 | 0.00 | 0.00 | 0.00 | 36 | 1014.3 |
| 20260503015804 | 62 | 280 | 2.6 | 6.1 | 0.00 | 0.00 | 0.00 | 35 | 1014.2 |
| 20260503014804 | 62 | 314 | 1.7 | 6.1 | 0.00 | 0.00 | 0.00 | 35 | 1014.3 |
| 20260503014304 | 62 | 323 | 2.6 | 5.2 | 0.00 | 0.00 | 0.00 | 36 | 1014.2 |
| 20260503013804 | 63 | 317 | 2.6 | 7.0 | 0.00 | 0.00 | 0.00 | 37 | 1014.3 |
| 20260503012804 | 63 | 322 | 2.6 | 5.2 | 0.00 | 0.00 | 0.00 | 37 | 1014.6 |
| 20260503012305 | 63 | 308 | 2.6 | 7.0 | 0.00 | 0.00 | 0.00 | 36 | 1014.5 |
| 20260503011305 | 63 | 320 | 0.9 | 6.1 | 0.00 | 0.00 | 0.00 | 37 | 1014.6 |
| 20260503010804 | 63 | 291 | 3.5 | 7.0 | 0.00 | 0.00 | 0.00 | 37 | 1014.6 |
| 20260503005305 | 64 | 286 | 4.3 | 8.7 | 0.00 | 0.00 | 0.00 | 35 | 1014.5 |
| 20260503004803 | 64 | 287 | 4.3 | 7.0 | 0.00 | 0.00 | 0.00 | 36 | 1014.6 |
| 20260503003803 | 64 | 288 | 4.3 | 7.8 | 0.00 | 0.00 | 0.00 | 35 | 1014.9 |
| 20260503003304 | 64 | 283 | 3.5 | 8.7 | 0.00 | 0.00 | 0.00 | 35 | 1014.9 |
| 20260503002804 | 64 | 277 | 2.6 | 6.1 | 0.00 | 0.00 | 0.00 | 36 | 1014.7 |
| 20260503002305 | 64 | 291 | 2.6 | 7.0 | 0.00 | 0.00 | 0.00 | 35 | 1015.1 |
| 20260503001804 | 65 | 314 | 2.6 | 7.8 | 0.00 | 0.00 | 0.00 | 37 | 1015.1 |
| 20260503001304 | 64 | 282 | 4.3 | 10.4 | 0.00 | 0.00 | 0.00 | 35 | 1015.0 |
| 20260503000804 | 64 | 291 | 4.3 | 7.8 | 0.00 | 0.00 | 0.00 | 35 | 1014.9 |
| 20260503000304 | 65 | 322 | 2.6 | 6.1 | 0.00 | 0.00 | 0.00 | 36 | 1014.9 |
| 20260502235804 | 65 | 271 | 2.6 | 7.8 | 0.00 | 0.00 | 0.00 | 36 | 1015.2 |
| 20260502235305 | 65 | 305 | 2.6 | 7.8 | 0.00 | 0.00 | 0.00 | 36 | 1015.1 |
| 20260502234804 | 65 | 257 | 4.3 | 8.7 | 0.00 | 0.00 | 0.00 | 36 | 1015.2 |
| 20260502233804 | 65 | 273 | 4.3 | 8.7 | 0.00 | 0.00 | 0.00 | 35 | 1015.6 |
| 20260502233304 | 65 | 290 | 2.6 | 7.0 | 0.00 | 0.00 | 0.00 | 36 | 1015.4 |
| 20260502232804 | 65 | 324 | 2.6 | 7.8 | 0.00 | 0.00 | 0.00 | 36 | 1015.5 |
| 20260502232305 | 65 | 288 | 2.6 | 7.0 | 0.00 | 0.00 | 0.00 | 36 | 1015.7 |
| 20260502231803 | 65 | 347 | 1.7 | 4.3 | 0.00 | 0.00 | 0.00 | 36 | 1015.8 |
| 20260502231305 | 65 | 278 | 1.7 | 6.1 | 0.00 | 0.00 | 0.00 | 36 | 1015.6 |
| 20260502230804 | 65 | 304 | 5.2 | 13.0 | 0.00 | 0.00 | 0.00 | 36 | 1015.8 |
| 20260502230304 | 65 | 279 | 4.3 | 8.7 | 0.00 | 0.00 | 0.00 | 36 | 1015.9 |
| 20260502225804 | 64 | 305 | 1.7 | 7.0 | 0.00 | 0.00 | 0.00 | 38 | 1015.8 |
| 20260502225304 | 64 | 301 | 2.6 | 6.1 | 0.00 | 0.00 | 0.00 | 38 | 1015.9 |
| 20260502224804 | 64 | 97 | 0.9 | 5.2 | 0.00 | 0.00 | 0.00 | 36 | 1016.0 |
| 20260502224304 | 64 | 311 | 3.5 | 10.4 | 0.00 | 0.00 | 0.00 | 37 | 1016.0 |
| 20260502223804 | 64 | 321 | 1.7 | 5.2 | 0.00 | 0.00 | 0.00 | 38 | 1016.3 |
| 20260502223304 | 64 | 288 | 1.7 | 4.3 | 0.00 | 0.00 | 0.00 | 37 | 1016.4 |
| 20260502222804 | 64 | 15 | 1.7 | 6.1 | 0.00 | 0.00 | 0.00 | 37 | 1016.4 |
| 20260502221304 | 65 | 309 | 3.5 | 7.8 | 0.00 | 0.00 | 0.00 | 37 | 1016.5 |
| 20260502220804 | 64 | 293 | 3.5 | 7.8 | 0.00 | 0.00 | 0.00 | 38 | 1016.7 |
| 20260502220304 | 64 | 326 | 0.9 | 4.3 | 0.00 | 0.00 | 0.00 | 38 | 1016.8 |
| 20260502215305 | 64 | 295 | 5.2 | 7.8 | 0.00 | 0.00 | 0.00 | 38 | 1016.8 |
| 20260502214804 | 64 | 311 | 2.6 | 7.0 | 0.00 | 0.00 | 0.00 | 39 | 1016.9 |
| 20260502214305 | 64 | 287 | 2.6 | 7.0 | 0.00 | 0.00 | 0.00 | 37 | 1016.9 |
| 20260502213804 | 64 | 298 | 2.6 | 11.3 | 0.00 | 0.00 | 0.00 | 39 | 1017.1 |
| 20260502213304 | 64 | 268 | 4.3 | 7.8 | 0.00 | 0.00 | 0.00 | 39 | 1017.2 |
| 20260502212804 | 64 | 289 | 3.5 | 8.7 | 0.00 | 0.00 | 0.00 | 36 | 1017.1 |
| 20260502212305 | 64 | 267 | 2.6 | 5.2 | 0.00 | 0.00 | 0.00 | 38 | 1017.1 |
| 20260502211804 | 64 | 297 | 1.7 | 5.2 | 0.00 | 0.00 | 0.00 | 37 | 1017.0 |
| 20260502210804 | 63 | 158 | 1.7 | 5.2 | 0.00 | 0.00 | 0.00 | 37 | 1017.3 |
| 20260502210304 | 63 | 296 | 3.5 | 7.0 | 0.00 | 0.00 | 0.00 | 38 | 1017.5 |
| 20260502205804 | 63 | 332 | 1.7 | 6.1 | 0.00 | 0.00 | 0.00 | 39 | 1017.3 |
| 20260502205305 | 63 | 268 | 3.5 | 8.7 | 0.00 | 0.00 | 0.00 | 38 | 1017.6 |
| 20260502204804 | 63 | 282 | 2.6 | 7.8 | 0.00 | 0.00 | 0.00 | 38 | 1017.9 |
| 20260502204304 | 63 | 270 | 2.6 | 7.8 | 0.00 | 0.00 | 0.00 | 38 | 1017.7 |
| 20260502203804 | 63 | 289 | 2.6 | 7.0 | 0.00 | 0.00 | 0.00 | 41 | 1018.1 |
| 20260502202803 | 63 | 248 | 2.6 | 8.7 | 0.00 | 0.00 | 0.00 | 40 | 1018.0 |
| 20260502202305 | 62 | 275 | 4.3 | 8.7 | 0.00 | 0.00 | 0.00 | 39 | 1018.3 |
| 20260502201804 | 62 | 137 | 0.9 | 6.1 | 0.00 | 0.00 | 0.00 | 38 | 1018.2 |
| 20260502201304 | 62 | 261 | 1.7 | 7.0 | 0.00 | 0.00 | 0.00 | 38 | 1018.3 |
| 20260502200804 | 62 | 279 | 3.5 | 7.0 | 0.00 | 0.00 | 0.00 | 38 | 1018.3 |
| 20260502200303 | 62 | 217 | 3.5 | 11.3 | 0.00 | 0.00 | 0.00 | 38 | 1018.4 |
| 20260502195804 | 62 | 293 | 2.6 | 6.1 | 0.00 | 0.00 | 0.00 | 40 | 1018.6 |
| 20260502195305 | 63 | 326 | 0.9 | 6.1 | 0.00 | 0.00 | 0.00 | 37 | 1018.7 |
| 20260502194804 | 63 | 279 | 2.6 | 7.0 | 0.00 | 0.00 | 0.00 | 38 | 1018.7 |
| 20260502194304 | 63 | 279 | 1.7 | 11.3 | 0.00 | 0.00 | 0.00 | 38 | 1018.7 |
| 20260502193804 | 63 | 279 | 3.5 | 11.3 | 0.00 | 0.00 | 0.00 | 38 | 1019.0 |
| 20260502193304 | 63 | 284 | 1.7 | 7.0 | 0.00 | 0.00 | 0.00 | 40 | 1018.8 |
| 20260502192804 | 62 | 266 | 3.5 | 7.0 | 0.00 | 0.00 | 0.00 | 40 | 1019.0 |
| 20260502192305 | 63 | 203 | 1.7 | 6.1 | 0.00 | 0.00 | 0.00 | 37 | 1019.0 |
| 20260502191804 | 63 | 294 | 2.6 | 6.1 | 0.00 | 0.00 | 0.00 | 43 | 1019.2 |
| 20260502191304 | 63 | 271 | 3.5 | 7.8 | 0.00 | 0.00 | 0.00 | 39 | 1019.2 |
| 20260502190804 | 63 | 283 | 5.2 | 10.4 | 0.00 | 0.00 | 0.00 | 40 | 1019.2 |
| 20260502190304 | 64 | 292 | 1.7 | 4.3 | 0.00 | 0.00 | 0.00 | 39 | 1019.3 |
| 20260502185804 | 64 | 275 | 2.6 | 7.0 | 0.00 | 0.00 | 0.00 | 38 | 1019.4 |
| 20260502184804 | 64 | 269 | 4.3 | 7.8 | 0.00 | 0.00 | 0.00 | 39 | 1019.4 |
| 20260502184304 | 64 | 303 | 1.7 | 7.8 | 0.00 | 0.00 | 0.00 | 46 | 1019.5 |
| 20260502183304 | 63 | 287 | 1.7 | 10.4 | 0.00 | 0.00 | 0.00 | 38 | 1019.6 |
| 20260502182804 | 63 | 294 | 4.3 | 10.4 | 0.00 | 0.00 | 0.00 | 43 | 1019.7 |
| 20260502182305 | 64 | 258 | 1.7 | 7.0 | 0.00 | 0.00 | 0.00 | 38 | 1020.0 |
| 20260502181804 | 64 | 276 | 4.3 | 10.4 | 0.00 | 0.00 | 0.00 | 41 | 1020.0 |
| 20260502181304 | 63 | 271 | 2.6 | 7.0 | 0.00 | 0.00 | 0.00 | 39 | 1020.0 |
| 20260502180804 | 63 | 289 | 3.5 | 7.0 | 0.00 | 0.00 | 0.00 | 40 | 1020.2 |
| 20260502180305 | 64 | 273 | 2.6 | 7.0 | 0.00 | 0.00 | 0.00 | 38 | 1020.2 |
| 20260502170304 | 61 | 303 | 1.7 | 2.6 | 0.00 | 0.00 | 0.00 | 44 | 1020.6 |
| 20260502164304 | 62 | 15 | 0.9 | 5.2 | 0.00 | 0.00 | 0.00 | 40 | 1020.6 |
| 20260502163804 | 62 | 276 | 1.7 | 5.2 | 0.00 | 0.00 | 0.00 | 42 | 1020.8 |
| 20260502163304 | 62 | 153 | 0.0 | 1.7 | 0.00 | 0.00 | 0.00 | 42 | 1020.9 |
| 20260502162804 | 61 | 273 | 1.7 | 2.6 | 0.00 | 0.00 | 0.00 | 42 | 1020.9 |
| 20260502162305 | 61 | 267 | 0.9 | 2.6 | 0.00 | 0.00 | 0.00 | 42 | 1020.7 |
| 20260502160804 | 58 | 265 | 1.7 | 4.3 | 0.00 | 0.00 | 0.00 | 47 | 1020.9 |
| 20260502160304 | 56 | 282 | 0.9 | 1.7 | 0.00 | 0.00 | 0.00 | 49 | 1021.1 |
| 20260502152305 | 54 | 186 | 0.9 | 1.7 | 0.00 | 0.00 | 0.00 | 52 | 1021.3 |
| 20260502151304 | 53 | 200 | 0.9 | 1.7 | 0.00 | 0.00 | 0.00 | 53 | 1021.1 |
| 20260502150804 | 52 | 139 | 0.9 | 0.9 | 0.00 | 0.00 | 0.00 | 54 | 1021.1 |
| 20260502150304 | 52 | 150 | 0.9 | 1.7 | 0.00 | 0.00 | 0.00 | 54 | 1021.2 |
| 20260502130304 | 47 | 29 | 0.0 | 0.0 | 0.00 | 0.00 | 0.00 | 65 | 1020.7 |
| 20260502123804 | 47 | 41 | 0.0 | 0.9 | 0.00 | 0.00 | 0.00 | 66 | 1020.8 |
| 20260502123304 | 47 | 41 | 0.0 | 0.9 | 0.00 | 0.00 | 0.00 | 65 | 1020.7 |
| 20260502122804 | 47 | 76 | 0.0 | 0.9 | 0.00 | 0.00 | 0.00 | 65 | 1020.7 |
| 20260502122306 | 47 | 96 | 0.0 | 1.7 | 0.00 | 0.00 | 0.00 | 65 | 1020.8 |
| 20260502121305 | 47 | 100 | 0.9 | 2.6 | 0.00 | 0.00 | 0.00 | 65 | 1020.7 |
| 20260502120803 | 47 | 100 | 0.9 | 2.6 | 0.00 | 0.00 | 0.00 | 65 | 1020.7 |
| 20260502120304 | 47 | 97 | 0.9 | 2.6 | 0.00 | 0.00 | 0.00 | 65 | 1020.8 |
| 20260502115803 | 47 | 94 | 1.7 | 2.6 | 0.00 | 0.00 | 0.00 | 65 | 1020.8 |
| 20260502115306 | 47 | 104 | 0.9 | 2.6 | 0.00 | 0.00 | 0.00 | 65 | 1020.7 |
| 20260502114804 | 47 | 100 | 1.7 | 2.6 | 0.00 | 0.00 | 0.00 | 65 | 1020.8 |
| 20260502114304 | 47 | 99 | 0.9 | 2.6 | 0.00 | 0.00 | 0.00 | 65 | 1020.8 |
| 20260502113304 | 47 | 100 | 0.9 | 1.7 | 0.00 | 0.00 | 0.00 | 65 | 1020.7 |
| 20260502112804 | 47 | 86 | 0.9 | 1.7 | 0.00 | 0.00 | 0.00 | 65 | 1020.8 |
| 20260502112306 | 48 | 103 | 1.7 | 4.3 | 0.00 | 0.00 | 0.00 | 65 | 1020.8 |
| 20260502111804 | 48 | 97 | 1.7 | 2.6 | 0.00 | 0.00 | 0.00 | 66 | 1020.7 |
| 20260502110804 | 48 | 94 | 0.9 | 4.3 | 0.00 | 0.00 | 0.00 | 66 | 1020.9 |
| 20260502105803 | 48 | 31 | 0.9 | 4.3 | 0.00 | 0.00 | 0.00 | 65 | 1020.7 |
| 20260502105306 | 48 | 96 | 0.9 | 2.6 | 0.00 | 0.00 | 0.00 | 65 | 1020.7 |
| 20260502104804 | 48 | 50 | 0.0 | 2.6 | 0.00 | 0.00 | 0.00 | 65 | 1020.8 |
| 20260502104304 | 48 | 23 | 0.9 | 1.7 | 0.00 | 0.00 | 0.00 | 65 | 1020.7 |
| 20260502103304 | 48 | 44 | 0.9 | 1.7 | 0.00 | 0.00 | 0.00 | 65 | 1020.7 |
| 20260502102803 | 48 | 22 | 0.9 | 1.7 | 0.00 | 0.00 | 0.00 | 65 | 1020.7 |
| 20260502101804 | 49 | 61 | 0.9 | 2.6 | 0.00 | 0.00 | 0.00 | 66 | 1020.5 |
| 20260502101304 | 49 | 104 | 0.9 | 2.6 | 0.00 | 0.00 | 0.00 | 66 | 1020.7 |
| 20260502100804 | 49 | 39 | 0.9 | 1.7 | 0.00 | 0.00 | 0.00 | 66 | 1020.8 |
| 20260502100304 | 49 | 113 | 0.9 | 2.6 | 0.00 | 0.00 | 0.00 | 66 | 1020.8 |
| 20260502091304 | 50 | 74 | 0.9 | 2.6 | 0.00 | 0.00 | 0.00 | 60 | 1020.6 |
| 20260502090304 | 50 | 9 | 1.7 | 4.3 | 0.00 | 0.00 | 0.00 | 61 | 1020.4 |
| 20260502071304 | 50 | 49 | 0.9 | 1.7 | 0.00 | 0.00 | 0.00 | 59 | 1020.3 |
| 20260502070804 | 50 | 51 | 0.0 | 0.9 | 0.00 | 0.00 | 0.00 | 59 | 1020.1 |
| 20260502065804 | 50 | 30 | 0.9 | 1.7 | 0.00 | 0.00 | 0.00 | 58 | 1020.1 |
| 20260502065306 | 50 | 41 | 0.0 | 1.7 | 0.00 | 0.00 | 0.00 | 58 | 1020.0 |
| 20260502064803 | 50 | 47 | 0.9 | 1.7 | 0.00 | 0.00 | 0.00 | 58 | 1020.3 |
| 20260502064305 | 50 | 48 | 0.9 | 0.9 | 0.00 | 0.00 | 0.00 | 58 | 1020.1 |
| 20260502063804 | 50 | 56 | 0.9 | 1.7 | 0.00 | 0.00 | 0.00 | 58 | 1020.0 |
| 20260502063304 | 50 | 52 | 0.9 | 1.7 | 0.00 | 0.00 | 0.00 | 58 | 1020.2 |
| 20260502062804 | 50 | 10 | 0.9 | 1.7 | 0.00 | 0.00 | 0.00 | 58 | 1020.0 |
| 20260502062306 | 50 | 57 | 0.9 | 2.6 | 0.00 | 0.00 | 0.00 | 58 | 1020.2 |
| 20260502061304 | 51 | 65 | 0.0 | 2.6 | 0.00 | 0.00 | 0.00 | 59 | 1020.2 |
| 20260502060804 | 51 | 50 | 0.9 | 1.7 | 0.00 | 0.00 | 0.00 | 59 | 1020.0 |
| 20260502060305 | 51 | 103 | 0.9 | 1.7 | 0.00 | 0.00 | 0.00 | 58 | 1019.9 |
| 20260502055804 | 50 | 55 | 0.9 | 1.7 | 0.00 | 0.00 | 0.00 | 59 | 1020.0 |
| 20260502054803 | 50 | 27 | 0.9 | 1.7 | 0.00 | 0.00 | 0.00 | 59 | 1020.2 |
| 20260502054305 | 50 | 42 | 0.9 | 2.6 | 0.00 | 0.00 | 0.00 | 60 | 1019.9 |
| 20260502053804 | 50 | 44 | 0.9 | 1.7 | 0.00 | 0.00 | 0.00 | 59 | 1019.7 |
| 20260502052804 | 50 | 102 | 0.9 | 4.3 | 0.00 | 0.00 | 0.00 | 60 | 1019.6 |
| 20260502052306 | 50 | 108 | 1.7 | 2.6 | 0.00 | 0.00 | 0.00 | 60 | 1019.6 |